CAPE
23 8 26 30 13 21 31 18 10 0 0 0 0 16 5 81 0 0 194 204 217 97 57 77 4 16 0 4 26 1 138 227 56 169 2142 3091 3250 3366 3167 2056 2010 1795 1714 1826 1917 1910 1852 1779 1706 1738 1766 1713 1405 931 628 575 493 422 652 961 1154 1133 1118 1249 1180 832 674 534 306 288 382 237 142 88 100 80 140 208 164 247 334 105 21 2 27 20 28
11 16 23 22 23 14 13 20 6 8 6 0 0 0 93 357 58 134 310 294 279 93 54 157 105 31 0 31 44 0 0 383 479 242 856 2504 3095 3262 3368 2819 2424 2225 2160 2149 2072 1969 1942 1938 1872 1761 1701 1530 1100 847 606 458 418 426 793 965 1188 1241 1149 1185 1104 889 702 521 394 281 266 161 62 62 106 202 240 196 217 248 312 274 62 177 276 43 6
5 8 35 40 28 9 16 10 0 0 2 5 1 0 1 8 57 778 523 346 296 138 109 108 293 68 166 0 0 0 115 98 472 574 1090 1192 2736 2866 3038 3085 2727 2449 2304 2235 2216 2231 2237 2158 2081 1953 1543 1172 689 639 554 496 397 371 663 921 1011 929 360 434 814 740 212 235 210 273 188 112 143 209 208 264 233 232 393 408 170 144 388 16 0 12 160
8 4 11 12 20 31 36 10 1 0 11 23 26 2 4 3 2 116 721 492 435 320 229 301 362 202 45 76 78 26 3 0 0 0 0 35 814 1956 2060 2279 3145 2764 2457 2265 2236 2226 2316 2361 2311 2224 1854 1192 1028 894 759 617 512 471 445 458 420 327 277 360 351 272 158 170 214 206 178 186 189 207 302 319 312 320 398 496 525 465 282 210 223 220 214
0 0 0 0 0 6 32 16 0 11 26 16 24 20 4 2 43 321 148 466 403 298 358 317 217 142 83 47 62 836 900 979 1431 1323 1150 1145 1411 1780 2316 2719 3032 3045 2714 2448 2364 2251 2141 2128 2170 2119 2012 1684 1254 1140 966 778 652 633 570 372 280 278 289 394 432 279 285 300 264 292 262 230 237 368 360 398 468 475 500 480 504 471 357 335 378 209 228
8 1 0 0 4 13 26 13 15 41 43 24 18 32 36 241 28 322 177 127 171 159 249 280 252 109 11 1 14 63 124 283 224 295 627 1037 908 1827 2509 2886 2944 2818 2701 2576 2532 2392 2182 2032 1880 1896 1857 1777 1526 1173 1075 848 760 590 472 382 387 314 405 632 533 446 434 485 470 387 366 350 394 410 536 552 520 530 508 521 508 436 417 248 143 326 380
11 126 147 22 0 7 145 179 149 58 2 0 7 17 21 252 66 277 179 296 419 227 142 21 77 84 9 52 116 224 348 309 389 442 420 374 836 838 1028 2670 2657 2526 2559 2524 2423 2386 2270 2114 1940 1763 1777 1820 1650 1377 1125 1028 861 855 637 507 803 734 793 806 735 666 683 608 640 619 606 538 466 516 605 622 669 652 588 567 522 389 226 275 434 555 442
29 6 32 15 10 134 173 137 8 4 11 76 59 65 304 108 96 291 17 10 107 153 11 4 10 4 29 514 588 268 401 362 344 305 422 440 314 436 680 621 2396 2561 2298 2292 2373 2410 2326 2106 1940 1811 1833 1812 1690 1461 1320 1189 1040 861 853 844 1223 1176 1025 948 813 783 748 722 672 708 681 647 637 611 634 680 710 721 708 623 528 439 424 438 336 274 210
20 23 23 40 100 82 416 129 64 0 1 231 233 107 81 363 44 568 342 199 10 141 147 163 11 0 7 32 44 46 160 129 49 28 59 28 106 189 578 1004 2038 2388 2430 2388 2746 2705 2393 2039 1814 1870 2005 2030 1838 1626 1592 1324 1127 1003 1025 994 1429 1406 1307 1156 1030 879 774 723 692 676 678 664 644 656 688 731 756 799 840 745 646 592 450 316 282 224 199
22 10 9 4 2 0 9 85 109 19 22 25 160 33 90 510 45 286 292 80 133 249 186 263 163 12 0 7 2 272 382 356 187 72 206 226 186 1065 2306 4066 4283 3781 3372 2926 3238 2965 2583 2192 2196 2292 2440 2387 2062 2075 1876 1750 1426 1124 928 966 1443 1568 1507 1410 1278 1117 930 780 712 688 678 657 662 664 715 796 848 955 905 871 757 676 571 374 329 335 343
56 38 2 2 5 75 151 544 114 233 151 105 266 62 13 476 649 421 376 194 320 214 270 174 95 6 12 25 34 169 361 275 372 314 167 180 1736 2333 3166 3854 4113 4097 3960 3566 3537 3158 2919 2879 2842 2945 2944 2508 2477 2238 1982 1838 1685 1381 914 1210 1396 1637 1635 1607 1544 1340 1105 919 818 754 694 670 658 709 786 866 952 1075 1007 882 800 774 608 364 239 312 318
4 239 11 37 18 175 441 326 317 162 147 126 158 163 153 168 626 419 306 489 49 8 19 110 37 0 41 4 244 0 0 4 438 352 320 2331 2384 2800 3091 3598 3800 3855 3919 3894 3712 3408 3352 3266 3023 3047 3034 2644 2448 2186 1966 1820 1637 1061 1174 1468 1545 1638 1686 1706 1696 1580 1347 1114 880 775 736 690 681 738 856 964 1055 1109 1076 911 794 654 529 400 242 159 55
12 21 38 20 157 436 381 289 57 78 45 176 94 56 382 297 596 335 56 84 74 48 1 0 35 19 0 36 38 44 39 0 654 1410 2026 2347 2643 2693 3010 3442 3611 3662 3658 3607 3748 3696 3583 3370 3108 2847 2752 2440 2188 1930 1775 1529 1033 944 1074 1284 1574 1743 1832 1853 1797 1704 1559 1384 1165 835 647 680 778 831 859 958 920 947 975 783 638 581 496 361 298 236 220
4 16 2 60 151 957 20 3 178 45 20 84 110 193 504 553 18 10 92 44 58 38 163 509 252 236 72 59 72 106 184 428 1310 2162 2278 2460 2551 2572 2988 3230 3373 3540 3624 3421 3339 3336 3340 3182 3044 2862 2606 2408 1859 1584 1375 994 988 1043 1104 1167 1395 1663 1844 1855 1822 1742 1627 1480 1264 960 719 671 819 944 783 600 490 366 430 504 492 566 536 452 321 318 268
349 322 163 10 0 180 168 79 203 433 512 672 603 940 217 16 12 14 53 438 52 37 37 21 161 208 7 391 397 218 199 440 1625 2081 2226 2320 2384 2925 3002 3117 3295 3348 3352 3156 3090 3159 3043 2994 2857 2686 2352 1862 1600 1802 1578 1526 2155 2878 2368 1722 1689 2080 2122 2062 1764 1596 1477 1382 1242 1080 869 655 648 524 505 484 300 310 332 366 128 371 845 627 552 456 392
404 132 138 14 112 504 450 243 463 499 925 440 1256 557 20 18 35 23 21 416 523 452 476 496 564 508 442 674 498 353 873 752 1791 1750 1858 1773 1854 3142 3112 3182 3237 3055 3165 2900 2310 2204 2468 2527 2470 2268 2243 2409 2570 2602 2855 2834 2814 2625 2675 2913 2988 2720 2356 2197 2020 1790 1653 1370 1192 1001 854 730 657 480 364 524 451 338 243 196 163 249 171 468 512 526 494
972 633 140 490 502 410 428 513 774 776 912 1055 1298 130 10 15 10 25 17 134 17 542 552 807 872 789 681 730 717 443 888 1484 1668 1500 1699 2362 2570 3138 3117 3084 3073 3024 2972 2418 1528 1289 1553 2024 2308 2624 2681 2994 3162 2968 2881 2726 2442 2341 2270 2546 2621 2800 2852 2847 2746 2334 1931 1588 1412 1186 1029 1009 937 744 638 648 478 420 413 402 87 0 0 157 374 663 596
887 462 773 448 136 151 253 328 466 481 557 554 112 12 17 14 18 52 90 42 32 154 413 511 602 833 582 400 536 693 1377 2078 2289 2072 2212 2194 2397 3040 3095 3100 3072 2935 2475 1743 1133 818 1212 1380 2834 3204 3124 2966 2995 2990 2858 2442 2152 2198 2288 2161 2072 2350 2560 2455 2294 2010 1854 1765 1674 1619 1584 1358 1100 890 882 669 547 542 538 539 504 340 208 0 298 511 618
257 41 7 118 99 22 70 91 233 404 518 488 159 23 452 551 444 445 23 21 434 860 1026 1205 1035 910 1053 1135 1473 1856 2693 2296 1970 1736 1809 1805 2100 2688 2549 2253 1854 1667 1478 950 954 778 1026 980 1768 2565 2961 2949 2636 2100 1937 2039 2101 2365 2411 2406 2559 2156 2380 2411 2250 2070 2082 2029 1987 1984 1983 1836 1365 1001 786 736 636 540 576 573 244 20 29 50 223 494 534
446 132 254 76 197 26 6 16 270 34 164 302 381 656 512 441 361 255 54 196 631 585 1191 1546 1803 1772 1871 1999 1919 1979 1904 1550 1479 1540 1442 1570 1619 1542 1289 1140 1086 1388 999 758 880 957 1155 1483 1720 1913 1977 2052 2205 2159 1903 1036 1351 2235 2053 2493 2360 2282 2404 2563 2344 2072 1932 2001 1664 1627 1480 1192 1036 924 780 628 550 601 614 575 510 450 318 274 370 451 404
955 811 855 527 115 163 104 46 14 0 0 4 0 314 400 460 414 36 174 719 727 834 1105 1976 1873 1860 1686 1538 1623 1737 1423 1416 1275 1226 1004 1455 1546 1305 996 877 977 1071 866 1002 956 797 1317 1230 1183 1054 702 344 9 144 603 1020 886 1220 1730 1730 1839 2109 2171 2159 2305 1915 1601 1414 1303 1182 1039 837 691 601 584 592 603 538 471 528 477 418 354 348 413 511 425
530 495 436 86 499 40 64 42 153 15 0 0 4 1 176 13 10 5 4 100 502 890 832 1799 2384 2118 1693 1294 1079 1320 1338 1238 1203 1324 1161 959 1093 1105 956 990 857 753 859 850 606 591 740 732 427 348 300 90 0 54 544 1018 1209 1211 1332 1304 1237 1128 1138 1556 1700 1954 1827 1535 1208 869 678 559 518 566 639 639 555 421 567 626 539 456 397 404 314 360 445
59 491 428 508 305 14 17 38 28 19 17 13 3 0 2 13 8 5 2 8 85 626 780 1376 1871 1913 1638 1361 1386 1505 1455 1205 1186 1147 1086 1018 932 836 750 852 833 765 686 709 708 394 41 385 50 85 299 480 267 398 644 776 982 904 1054 1162 1017 994 812 704 1227 1537 1151 951 749 612 601 600 596 548 539 489 413 357 328 262 320 308 314 328 355 390 437
3 106 269 257 258 204 141 50 24 36 70 15 0 0 0 0 0 1 6 12 8 71 507 876 1742 1918 1856 1649 1543 1631 1399 1079 1149 1223 1175 1158 1097 1062 950 806 907 851 800 829 802 592 168 64 106 276 311 480 508 484 842 778 742 632 774 841 917 820 908 1010 2168 2172 1642 1464 1326 917 816 695 716 703 562 450 267 193 0 0 172 0 339 389 412 418 482
101 2 238 297 285 260 147 48 37 6 1 3 0 0 4 16 16 5 14 29 32 47 10 90 534 1861 1931 1658 1682 1496 1420 1283 1254 1490 1372 1161 867 757 786 940 905 1074 1252 1259 1163 991 832 446 196 186 108 560 599 629 770 788 741 759 840 902 505 359 484 654 1247 1729 1185 1236 1006 854 827 757 572 400 311 267 268 295 259 227 0 0 0 198 226 236 233
0 0 86 242 238 35 21 26 0 0 0 0 0 2 6 61 352 210 0 0 0 0 0 0 71 311 1560 1750 1791 1667 1631 1465 1403 1417 1130 1106 1316 1188 1184 1110 1432 1643 1527 1292 821 712 583 453 360 503 870 730 266 76 324 420 466 576 618 668 880 986 723 621 639 765 776 1088 1185 760 546 586 632 410 304 295 375 351 408 353 93 0 168 245 283 265 204
0 2 50 193 208 118 0 0 0 0 0 0 0 0 0 0 51 0 0 0 0 0 0 0 0 0 1300 1642 1842 1586 1570 1526 1607 1419 1215 1049 1317 1322 1320 1283 1170 893 820 777 703 750 792 1146 1086 816 700 773 800 660 436 696 822 881 918 994 876 1134 945 1224 888 868 708 810 966 870 750 658 608 642 500 522 439 465 485 446 413 417 348 324 301 302 332
8 8 0 33 37 0 106 152 151 19 0 0 0 0 0 0 0 0 0 0 0 0 0 0 0 0 678 1632 1592 1652 1701 1690 1487 1578 1632 1325 1007 909 1304 1174 514 208 600 1032 1065 1464 1608 1122 878 760 1070 907 807 772 757 792 772 778 831 826 744 653 628 915 1007 941 874 892 987 971 834 604 458 414 333 371 333 418 447 484 418 382 394 371 337 318 218
0 0 0 0 0 73 88 0 0 0 0 0 0 0 0 0 0 0 0 0 0 0 0 0 0 0 33 990 1414 1657 1724 1812 1576 1629 1390 1196 908 657 564 1180 1118 1225 1439 1502 1439 1463 1188 918 829 1208 1084 1068 1021 797 744 904 866 822 791 556 644 745 732 664 533 753 645 543 573 514 526 528 517 497 419 478 482 502 476 450 413 321 331 301 239 8 0
0 0 0 0 0 0 0 0 0 0 0 0 0 0 0 0 0 0 0 0 0 0 0 0 0 72 118 23 1146 1116 1453 1495 1553 1356 1145 1094 868 640 412 1556 1405 1371 1329 1266 1268 1220 1055 1159 1454 1186 1109 1047 927 631 703 481 560 656 522 618 790 694 624 517 429 354 645 530 424 416 400 394 463 552 522 414 438 451 454 485 385 372 354 342 172 8 0
0 0 0 0 0 0 0 0 0 0 0 0 0 0 0 0 0 0 0 0 0 0 0 0 0 1 0 16 46 50 388 740 1239 1445 1282 896 633 992 1246 1426 1374 1230 1173 1119 902 1088 1479 1338 1252 1227 1271 1138 694 604 551 507 391 350 366 507 702 594 488 380 319 252 318 313 281 326 366 400 470 533 330 180 180 68 121 204 343 318 295 206 74 0 6
0 0 0 0 0 0 0 0 0 0 0 0 0 0 0 0 0 0 0 0 0 0 0 0 1 24 25 0 0 0 258 706 1064 1180 1035 700 698 894 824 964 1104 1061 843 831 404 297 1034 1265 1000 1058 1024 646 532 534 466 336 298 325 392 730 488 480 504 433 300 263 361 468 375 400 401 290 184 109 104 82 46 13 0 0 0 61 192 2 8 0 6
0 0 0 0 0 0 0 0 0 0 0 0 0 0 0 0 0 0 0 0 0 0 0 0 0 0 27 154 366 382 240 516 942 776 416 472 351 610 551 568 630 523 368 737 847 603 953 966 896 910 868 710 526 332 167 94 279 398 384 418 434 421 396 358 330 252 425 266 222 262 221 230 178 117 68 125 106 30 0 0 0 0 0 0 0 0 0
0 0 0 0 0 0 0 0 0 0 0 0 0 0 0 0 0 0 0 0 0 0 0 0 0 0 0 0 0 0 0 0 103 729 654 844 760 726 597 527 462 610 698 932 835 658 561 718 691 708 604 281 80 111 134 57 220 298 360 414 356 315 189 88 155 247 202 268 170 293 188 180 3 9 86 41 0 0 0 0 0 0 0 0 0 0 0
0 0 0 0 0 0 0 0 0 0 0 0 0 0 0 0 0 0 0 0 0 0 0 0 0 0 0 0 0 0 0 2 1523 800 880 1004 1102 1022 896 748 749 769 745 644 521 0 174 424 514 410 378 184 68 84 102 40 130 276 248 352 374 189 234 264 166 133 123 111 71 20 15 10 30 104 135 2 0 0 1 6 10 0 0 0 0 0 0
0 0 0 0 0 0 0 0 0 0 0 0 0 0 0 0 0 0 0 0 0 0 0 0 0 0 0 0 0 9 47 461 1030 1072 1092 1156 1153 935 856 742 845 922 908 791 466 270 247 271 54 57 41 31 2 8 122 156 54 156 268 84 18 56 239 216 130 78 29 0 2 2 0 62 45 16 19 0 29 22 0 0 0 0 0 0 0 0 0
0 0 0 0 0 0 0 0 0 0 0 0 0 0 0 0 0 0 0 0 0 0 0 0 0 0 0 0 128 1209 1012 968 934 1187 1382 1392 1218 899 642 544 563 512 409 378 331 316 271 184 91 73 86 26 6 4 137 220 113 115 63 90 136 157 57 18 27 6 12 0 0 0 8 23 0 0 0 0 0 0 0 0 0 0 0 0 0 0 0
0 0 0 0 0 0 0 0 0 0 2 2 4 5 4 0 0 0 0 2 28 220 268 149 93 4 3 104 1219 975 973 872 788 704 698 752 769 727 599 553 492 436 399 354 282 220 192 157 85 114 11 0 10 38 51 137 229 152 87 57 54 40 103 50 60 20 6 0 0 0 0 0 0 0 0 0 0 0 0 0 0 0 0 0 0 0 0
0 0 0 0 0 0 0 0 0 6 1 0 0 0 1 4 12 2 18 92 434 364 519 619 716 774 626 601 1108 818 758 780 639 758 794 863 755 692 655 583 493 398 301 261 214 211 195 280 312 218 59 15 10 0 46 128 199 0 34 1 5 5 1 8 6 5 9 0 0 0 0 0 0 0 0 0 0 0 0 0 0 0 0 0 0 0 0
0 0 0 0 0 0 0 0 0 0 0 0 0 15 34 52 63 118 349 366 250 283 172 386 911 812 690 642 727 756 782 786 684 692 671 686 664 631 586 534 453 404 413 264 242 213 161 143 180 70 93 0 0 0 52 35 0 3 31 38 16 43 3 0 0 0 0 4 0 9 0 0 0 0 0 0 0 0 0 0 2 0 0 0 0 0 0
0 0 0 1 2 0 4 9 4 2 0 7 23 56 71 87 68 132 192 124 84 50 166 294 431 518 304 237 198 311 506 638 693 708 644 620 604 584 600 455 295 270 232 172 30 163 307 303 49 0 2 74 0 45 0 0 0 0 0 2 0 0 0 0 1 2 0 0 1 0 0 0 0 0 0 0 0 0 0 0 0 0 0 0 0 0 0
0 5 12 12 12 12 19 14 14 10 20 54 113 118 126 131 90 67 72 69 55 108 197 291 346 221 65 37 155 224 186 178 428 436 403 224 263 176 296 183 308 235 353 368 293 96 36 201 191 220 0 0 0 1 50 0 0 0 0 0 0 8 10 0 0 0 0 0 0 0 0 0 0 0 0 0 0 0 0 0 0 0 0 0 0 0 0
9 8 12 15 32 66 52 48 53 54 74 85 101 150 147 76 62 39 32 99 73 96 271 155 182 108 46 34 193 172 42 171 39 210 333 275 218 459 368 146 131 234 363 127 24 0 10 20 2 0 17 0 0 0 0 0 0 0 0 0 8 0 0 0 0 6 5 6 4 4 0 0 0 0 0 0 0 0 0 0 0 0 0 0 0 1 1
4 14 22 49 72 95 70 50 50 76 101 127 172 198 181 107 95 74 106 114 90 136 232 82 4 26 82 205 16 92 131 222 381 509 325 191 169 215 117 54 69 206 265 102 2 0 1 0 0 0 0 0 0 0 0 0 0 0 0 0 0 0 0 0 0 0 0 0 0 0 0 0 0 0 0 0 0 0 0 0 0 0 0 0 0 0 0
66 52 41 38 46 83 81 112 162 154 140 174 227 214 226 240 272 187 212 220 164 262 192 208 106 158 226 319 366 558 650 759 658 380 231 69 70 174 246 494 340 260 236 122 29 0 0 0 0 0 0 0 0 0 0 0 0 0 0 0 0 0 0 0 0 0 0 0 0 0 0 0 0 0 0 0 0 0 0 0 0 0 0 0 0 0 0
40 60 41 54 80 86 108 130 123 102 126 208 160 277 318 279 210 211 351 308 206 288 272 305 295 378 316 248 220 298 474 432 457 579 612 280 152 88 259 290 251 335 39 0 0 0 0 0 0 0 0 0 0 0 0 0 0 0 0 0 0 0 0 0 0 0 0 0 0 0 0 0 0 0 0 0 0 0 0 1 0 0 0 0 0 0 0
72 87 90 104 182 136 113 118 162 191 152 241 242 184 296 348 342 372 384 391 352 426 446 417 330 169 206 454 537 832 256 184 378 228 134 124 344 203 259 155 142 156 262 28 0 0 0 0 0 0 0 0 0 0 0 0 0 0 0 0 0 0 0 0 0 0 0 0 0 0 8 0 0 0 0 0 0 0 0 0 0 0 0 0 0 2 0
130 121 137 189 176 204 262 172 181 103 129 287 291 335 324 353 471 510 676 592 452 480 340 351 426 404 240 263 501 507 783 264 189 396 50 21 4 61 7 27 8 82 23 35 0 0 0 0 0 0 0 0 0 0 0 0 0 0 0 0 0 0 0 0 0 0 0 0 0 0 0 0 0 0 0 0 0 0 0 0 0 0 0 0 0 0 0
125 178 256 260 184 175 210 302 284 284 300 416 401 468 501 363 484 672 632 534 333 428 424 190 290 374 398 392 400 360 477 459 255 634 274 0 0 0 7 120 65 0 0 0 0 0 0 0 0 0 0 0 0 0 0 0 0 0 0 0 0 0 0 0 0 0 0 0 0 0 0 0 0 0 0 0 0 0 0 0 0 0 0 0 0 0 0
152 101 143 255 226 345 266 300 170 98 152 478 541 690 716 527 371 431 736 579 264 371 336 105 107 352 628 838 456 752 804 604 372 581 116 102 64 4 22 4 0 0 0 0 0 0 0 0 0 0 0 0 0 0 0 0 0 0 1 1 1 0 0 0 0 0 0 0 0 0 0 0 0 0 0 0 0 2 0 0 0 0 0 0 0 0 0
162 269 344 519 565 512 440 303 332 575 613 539 534 672 728 652 486 527 388 490 570 422 216 276 564 392 244 409 362 372 491 508 365 662 90 0 6 198 140 1 0 1 0 0 0 0 0 0 0 0 0 0 0 0 0 0 0 1 2 0 2 4 4 4 1 0 0 0 0 0 0 0 0 0 0 0 0 0 0 0 0 0 0 0 0 0 0
106 234 135 178 262 447 550 455 307 372 674 966 802 674 360 332 336 303 282 739 348 103 124 306 71 60 218 351 472 484 452 394 115 207 328 228 60 5 65 155 0 0 0 0 0 0 0 0 0 0 0 0 0 0 0 2 2 4 8 10 10 9 5 0 0 0 0 1 0 0 0 0 0 0 0 0 0 0 0 1 1 0 0 0 0 0 0
Wind_Speed
nan nan nan nan nan nan nan nan nan nan nan nan nan nan nan nan nan nan 24 33 33 nan nan nan nan nan nan nan nan nan 42 42 nan 31 29 28 26 27 31 32 34 35 33 32 34 35 35 35 34 32 32 33 32 32 33 33 34 36 36 37 36 36 33 30 29 32 33 36 37 38 37 38 39 nan 38 nan 36 37 37 37 39 40 nan nan nan nan nan
nan nan nan nan nan nan nan nan nan nan nan nan nan nan nan 29 nan 23 28 26 32 nan nan 38 40 nan nan nan nan nan nan 33 31 28 28 31 32 32 33 34 35 36 38 37 35 36 36 36 35 35 35 35 34 34 35 36 37 38 39 36 36 36 32 29 30 33 35 35 37 38 38 39 nan nan 38 37 38 38 38 39 41 42 nan 43 45 nan nan
nan nan nan nan nan nan nan nan nan nan nan nan nan nan nan nan nan 31 34 32 30 28 33 37 40 nan 52 nan nan nan 38 nan 37 35 33 33 35 35 35 36 36 38 40 40 37 35 35 36 36 37 37 36 37 38 38 38 40 39 39 36 35 36 33 30 32 35 36 36 38 39 39 39 39 39 39 39 39 39 40 41 42 43 45 nan nan nan 46
nan nan nan nan nan nan nan nan nan nan nan nan nan nan nan nan nan 31 38 36 33 30 34 40 43 45 nan nan nan nan nan nan nan nan nan nan 35 35 35 36 38 39 41 42 40 35 33 34 35 36 37 37 38 38 37 38 38 37 36 35 35 36 34 30 32 36 36 37 38 38 39 40 40 40 41 41 40 40 41 42 43 45 46 46 46 47 46
nan nan nan nan nan nan nan nan nan nan nan nan nan nan nan nan nan 34 34 33 32 36 41 45 43 48 nan nan nan 57 55 48 41 35 33 34 35 36 37 40 41 41 40 41 42 39 35 34 33 34 36 36 36 36 37 37 37 35 36 34 35 35 33 31 34 36 37 38 39 39 40 41 41 42 42 42 42 42 43 44 44 45 46 47 47 46 46
nan nan nan nan nan nan nan nan nan nan nan nan nan nan nan 27 nan 33 37 41 42 45 48 47 46 53 nan nan nan nan 54 46 35 32 34 35 35 38 40 41 43 38 35 36 38 39 38 36 36 35 34 35 35 37 39 40 39 34 34 31 32 34 33 33 36 37 38 40 40 40 42 42 43 44 44 44 44 45 46 46 45 44 46 47 47 47 47
nan 46 44 nan nan nan 37 37 43 nan nan nan nan nan nan 34 nan 45 48 47 49 44 44 nan nan nan nan nan 61 59 52 42 36 34 35 35 36 35 37 41 40 38 36 36 37 37 37 39 37 36 34 36 39 39 40 39 36 33 29 30 30 33 34 35 36 37 39 41 41 42 43 44 44 45 46 46 46 47 49 49 47 45 45 46 48 48 48
nan nan nan nan nan 43 45 47 nan nan nan nan nan nan 37 39 nan 42 nan nan 42 45 nan nan nan nan nan 58 59 59 52 44 40 41 38 35 36 36 35 38 41 41 38 37 37 38 39 40 38 38 38 40 41 38 37 40 37 33 30 29 32 34 35 36 37 38 40 41 41 42 44 44 46 47 48 49 49 50 50 50 48 46 44 47 48 48 46
nan nan nan nan 47 nan 49 50 nan nan nan 47 46 43 nan 41 nan 44 46 45 nan 46 46 50 nan nan nan nan nan nan 45 40 nan nan nan nan 37 36 36 39 38 39 38 37 38 41 41 40 40 39 40 41 40 38 37 37 33 31 31 32 34 36 37 37 37 39 40 41 42 43 44 45 45 47 50 51 51 52 52 51 49 47 45 46 47 46 44
nan nan nan nan nan nan nan nan 49 nan nan nan 48 nan nan 48 nan 48 52 nan 57 57 53 55 56 nan nan nan nan 37 40 37 33 nan 41 39 39 40 40 40 38 37 38 39 41 42 43 42 42 42 43 42 39 37 36 36 35 33 32 33 35 36 36 36 37 39 40 41 42 43 44 44 45 48 51 52 53 54 54 53 51 48 45 43 44 44 44
nan nan nan nan nan nan 50 47 48 50 51 52 51 nan nan 52 54 51 50 54 57 59 59 57 nan nan nan nan nan 31 40 44 45 43 40 39 42 41 39 39 37 37 39 42 42 42 44 45 44 43 44 43 39 36 36 36 35 34 33 34 36 35 35 36 37 39 39 40 41 42 42 43 46 50 52 53 54 55 54 54 51 48 44 42 41 42 43
nan 42 nan nan nan 46 48 51 49 52 55 59 55 50 49 52 52 52 58 58 nan nan nan 64 nan nan nan nan 39 nan nan nan 40 43 41 40 39 38 37 36 36 37 39 43 43 44 45 45 46 44 43 40 38 37 36 36 35 34 34 35 35 34 34 36 37 38 39 40 40 40 40 43 49 52 52 53 56 57 55 53 50 48 46 43 42 41 nan
nan nan nan nan 38 40 43 47 nan nan nan 51 nan nan 49 50 55 61 nan nan nan nan nan nan nan nan nan nan nan nan nan nan 38 41 43 39 37 37 38 38 38 37 38 42 46 46 46 48 46 43 41 39 36 36 37 36 35 34 34 35 34 34 35 37 37 38 38 38 36 35 37 44 48 49 48 49 52 54 52 51 51 51 47 41 41 40 38
nan nan nan nan 38 38 nan nan 48 nan nan nan 37 40 42 45 nan nan nan nan nan nan 61 58 56 53 nan nan nan 41 39 39 39 40 42 43 38 36 38 41 40 39 40 44 48 51 50 50 46 41 39 38 37 36 37 36 34 34 35 34 34 34 35 36 37 37 37 36 33 31 37 44 45 43 41 43 44 43 42 45 55 57 48 41 39 38 36
45 45 43 nan nan 36 40 nan 43 45 41 33 36 39 40 nan nan nan nan 56 nan nan nan nan 52 50 nan 42 40 36 34 37 40 41 43 43 42 40 38 38 39 42 44 47 51 54 52 48 44 40 38 38 37 38 37 35 36 37 38 36 36 36 36 37 37 37 36 34 35 41 45 53 54 54 56 54 54 52 49 47 46 47 47 44 39 36 34
44 40 36 nan 30 33 36 39 41 40 41 37 37 40 nan nan nan nan nan 49 47 50 53 51 47 41 37 36 37 36 34 34 39 41 42 41 42 42 39 40 41 44 48 47 40 36 45 44 39 39 40 39 39 40 39 38 39 39 40 40 39 38 37 37 37 36 37 41 44 44 47 50 53 53 53 55 54 53 50 49 46 36 38 47 45 39 39
44 42 37 35 40 37 42 48 46 46 45 45 43 48 nan nan nan nan nan 44 nan 45 47 41 36 36 35 34 35 34 31 34 37 39 41 41 43 43 43 44 43 44 46 51 47 31 31 41 40 39 39 39 40 39 35 38 39 38 37 35 34 34 37 39 40 41 45 45 45 47 50 52 53 51 52 55 57 58 57 53 nan nan nan 36 41 45 48
47 48 47 41 49 48 46 44 43 45 48 50 48 nan nan nan nan nan nan nan nan 42 40 37 35 36 35 34 32 33 34 37 38 42 43 42 43 44 45 48 48 45 46 48 44 33 24 31 37 37 36 38 40 38 38 38 37 36 35 34 34 36 38 41 45 46 48 48 49 51 53 53 53 52 55 55 56 56 57 56 55 51 45 nan 42 49 53
53 nan nan 47 nan nan nan nan 48 45 44 43 40 nan 36 36 38 40 nan nan 41 42 40 36 33 32 32 34 36 37 41 40 39 42 43 40 41 44 47 48 50 47 47 49 45 35 25 32 37 37 37 37 38 38 38 36 35 34 34 34 36 40 41 44 45 47 49 49 51 52 53 52 51 52 54 56 56 55 56 55 53 nan nan nan 51 53 53
39 34 29 nan 39 nan nan nan 49 nan 44 44 42 40 40 41 39 38 nan 39 35 38 38 36 38 38 37 37 38 41 39 40 40 41 42 44 44 43 46 48 50 49 50 52 49 42 29 31 39 37 36 36 36 37 38 39 40 40 36 34 38 40 43 46 47 49 51 53 54 54 54 54 54 53 53 53 55 56 57 57 55 53 54 53 55 56 53
39 40 40 40 37 37 42 nan nan nan nan nan nan 43 43 43 42 nan 39 42 42 38 40 41 42 43 41 41 41 42 40 40 41 42 43 43 43 43 45 46 50 52 50 52 55 51 34 31 45 45 45 45 nan 47 42 43 47 47 42 39 41 44 47 48 49 50 53 54 54 55 55 55 54 52 50 50 53 56 53 53 53 55 56 56 56 55 53
44 42 42 nan 44 nan nan nan 43 nan nan nan nan nan 39 nan nan nan nan 41 40 40 40 43 42 43 42 43 44 46 43 42 40 39 41 42 45 45 45 46 51 56 53 51 50 53 50 37 46 54 55 nan nan nan 49 46 43 45 43 44 46 47 49 50 49 52 55 55 54 56 58 58 57 56 55 54 49 52 55 56 56 53 54 54 56 56 57
nan 45 48 47 45 nan nan nan nan nan nan nan nan nan nan nan nan nan nan nan nan 37 36 39 42 40 42 42 44 44 44 42 41 41 41 45 46 48 48 49 49 53 53 53 51 49 nan 48 nan nan 56 57 55 49 43 43 45 48 49 50 51 50 50 50 55 57 56 55 54 57 59 59 58 57 56 54 54 55 56 56 54 53 53 53 55 57 56
nan 52 49 47 43 38 32 nan nan nan nan nan nan nan nan nan nan nan nan nan nan nan 33 36 40 41 40 41 42 44 44 43 43 41 41 44 47 48 47 50 50 49 50 51 52 49 48 nan 49 51 55 49 45 44 44 47 51 52 52 52 52 50 51 54 56 56 57 55 57 57 56 57 57 56 56 56 54 51 nan nan 55 nan 55 56 58 59 58
45 nan 42 40 40 38 37 nan nan nan nan nan nan nan nan nan nan nan nan nan nan nan nan nan 39 42 44 42 42 44 45 44 44 44 44 44 46 47 47 48 49 51 50 50 50 50 49 47 48 50 47 46 47 50 52 54 55 54 53 52 51 51 52 53 56 57 56 56 57 56 57 56 55 55 55 54 54 53 48 48 nan nan nan 53 52 51 50
nan nan nan 36 35 nan nan nan nan nan nan nan nan nan nan nan 32 33 nan nan nan nan nan nan nan 43 46 48 45 43 45 45 46 46 45 45 46 46 46 48 50 52 53 53 52 50 49 48 47 48 51 52 53 nan 54 55 55 54 53 52 51 51 51 51 53 55 55 54 55 53 54 55 55 54 52 52 52 54 53 50 nan nan 45 44 43 42 40
nan nan nan 33 39 42 nan nan nan nan nan nan nan nan nan nan nan nan nan nan nan nan nan nan nan nan 46 51 48 49 48 46 47 46 45 45 47 48 49 52 53 53 52 52 51 49 50 50 51 54 54 53 53 55 55 54 53 54 54 53 53 50 49 52 55 56 55 55 55 54 53 54 52 51 49 48 48 50 49 49 48 47 44 39 35 35 36
nan nan nan nan nan nan 35 35 34 nan nan nan nan nan nan nan nan nan nan nan nan nan nan nan nan nan 45 44 50 49 52 51 48 46 45 45 46 48 51 51 50 50 51 52 51 51 52 53 54 55 55 54 55 55 54 54 53 53 52 51 51 52 53 53 53 55 55 54 54 52 54 52 49 47 46 46 45 44 43 43 46 46 43 39 36 34 35
nan nan nan nan nan nan nan nan nan nan nan nan nan nan nan nan nan nan nan nan nan nan nan nan nan nan nan 47 47 49 49 50 49 45 43 43 44 46 48 50 49 51 53 53 53 54 55 56 55 56 53 52 53 52 53 53 53 52 52 52 54 54 52 53 52 54 55 53 52 51 51 48 46 46 45 43 42 42 42 43 44 44 42 40 38 nan nan
nan nan nan nan nan nan nan nan nan nan nan nan nan nan nan nan nan nan nan nan nan nan nan nan nan nan 45 nan 48 47 47 47 45 43 42 42 43 43 45 49 52 54 55 56 57 57 57 55 56 56 53 50 49 50 51 52 51 51 51 50 52 53 53 52 52 52 54 53 51 50 48 45 45 45 43 42 42 42 43 43 43 44 41 39 37 nan nan
nan nan nan nan nan nan nan nan nan nan nan nan nan nan nan nan nan nan nan nan nan nan nan nan nan nan nan nan nan nan 42 44 44 42 42 42 44 45 48 50 53 51 51 53 53 52 52 53 54 53 51 51 51 51 50 50 50 49 48 50 52 55 57 56 54 54 55 52 49 47 44 43 43 42 41 42 43 nan 44 44 44 40 38 37 nan nan nan
nan nan nan nan nan nan nan nan nan nan nan nan nan nan nan nan nan nan nan nan nan nan nan nan nan nan nan nan nan nan 42 42 46 46 46 48 54 54 56 57 56 52 43 42 44 43 47 52 53 50 49 49 49 49 48 48 48 48 47 53 55 53 52 54 53 55 52 49 46 45 43 43 43 42 43 nan nan nan nan nan nan nan 38 nan nan nan nan
nan nan nan nan nan nan nan nan nan nan nan nan nan nan nan nan nan nan nan nan nan nan nan nan nan nan nan 39 39 41 41 43 45 51 56 55 52 50 50 51 51 49 47 47 48 49 54 58 53 49 47 46 46 45 45 nan 50 49 52 54 54 53 53 52 53 52 49 46 44 42 42 42 42 43 nan 41 41 nan nan nan nan nan nan nan nan nan nan
nan nan nan nan nan nan nan nan nan nan nan nan nan nan nan nan nan nan nan nan nan nan nan nan nan nan nan nan nan nan nan nan 44 52 51 52 50 48 49 53 53 54 54 55 54 51 44 45 46 45 45 43 nan 44 46 nan 50 52 52 53 53 54 54 nan 46 47 45 43 42 42 42 42 nan nan nan nan nan nan nan nan nan nan nan nan nan nan nan
nan nan nan nan nan nan nan nan nan nan nan nan nan nan nan nan nan nan nan nan nan nan nan nan nan nan nan nan nan nan nan nan 50 52 51 50 50 48 50 53 55 54 54 54 54 nan 50 49 49 48 47 50 nan nan 48 nan 49 52 52 53 52 51 49 47 45 45 45 43 nan nan nan nan nan 42 41 nan nan nan nan nan nan nan nan nan nan nan nan
nan nan nan nan nan nan nan nan nan nan nan nan nan nan nan nan nan nan nan nan nan nan nan nan nan nan nan nan nan nan nan 52 55 54 53 52 51 49 49 52 52 53 52 51 50 52 55 55 nan nan nan nan nan nan 50 49 nan 49 51 nan nan nan 46 45 45 nan nan nan nan nan nan nan nan nan nan nan nan nan nan nan nan nan nan nan nan nan nan
nan nan nan nan nan nan nan nan nan nan nan nan nan nan nan nan nan nan nan nan nan nan nan nan nan nan nan nan 47 52 55 57 55 53 52 52 50 49 49 50 50 52 52 52 49 51 53 53 nan nan nan nan nan nan 49 50 47 46 nan nan 47 45 nan nan nan nan nan nan nan nan nan nan nan nan nan nan nan nan nan nan nan nan nan nan nan nan nan
nan nan nan nan nan nan nan nan nan nan nan nan nan nan nan nan nan nan nan nan nan 43 43 43 nan nan nan 46 53 53 53 53 54 52 52 51 48 49 49 49 48 49 50 49 49 51 51 52 nan 54 nan nan nan nan nan 47 45 43 nan nan nan nan 41 nan nan nan nan nan nan nan nan nan nan nan nan nan nan nan nan nan nan nan nan nan nan nan nan
nan nan nan nan nan nan nan nan nan nan nan nan nan nan nan nan nan nan nan nan 44 44 44 43 42 42 39 47 53 51 50 52 53 52 49 47 46 49 48 48 49 50 50 50 51 51 51 51 49 51 nan nan nan nan nan 43 44 nan nan nan nan nan nan nan nan nan nan nan nan nan nan nan nan nan nan nan nan nan nan nan nan nan nan nan nan nan nan
nan nan nan nan nan nan nan nan nan nan nan nan nan nan nan nan nan 39 40 42 43 43 43 42 42 42 44 50 52 52 50 52 53 53 50 49 48 48 47 47 47 46 48 52 50 48 49 51 49 nan nan nan nan nan nan nan nan nan nan nan nan nan nan nan nan nan nan nan nan nan nan nan nan nan nan nan nan nan nan nan nan nan nan nan nan nan nan
nan nan nan nan nan nan nan nan nan nan nan nan nan nan nan nan nan 39 40 39 nan nan 41 43 45 45 42 39 42 45 46 48 49 48 47 46 45 44 43 41 38 40 42 44 nan 44 45 47 nan nan nan nan nan nan nan nan nan nan nan nan nan nan nan nan nan nan nan nan nan nan nan nan nan nan nan nan nan nan nan nan nan nan nan nan nan nan nan
nan nan nan nan nan nan nan nan nan nan nan nan 39 38 38 39 nan nan nan nan nan 42 44 47 50 49 nan nan 42 41 40 40 39 38 35 35 36 36 38 37 38 39 43 45 46 nan nan 43 43 42 nan nan nan nan nan nan nan nan nan nan nan nan nan nan nan nan nan nan nan nan nan nan nan nan nan nan nan nan nan nan nan nan nan nan nan nan nan
nan nan nan nan nan nan nan nan nan nan nan nan 37 38 40 nan nan nan nan nan nan nan 46 47 47 46 nan nan 34 35 nan 35 nan 30 30 33 33 31 35 36 39 41 46 39 nan nan nan nan nan nan nan nan nan nan nan nan nan nan nan nan nan nan nan nan nan nan nan nan nan nan nan nan nan nan nan nan nan nan nan nan nan nan nan nan nan nan nan
nan nan nan nan nan nan nan nan nan nan 30 31 32 33 35 36 nan nan 36 36 nan 36 36 nan nan nan nan 25 nan nan 26 27 28 28 30 30 31 32 34 nan nan 37 40 36 nan nan nan nan nan nan nan nan nan nan nan nan nan nan nan nan nan nan nan nan nan nan nan nan nan nan nan nan nan nan nan nan nan nan nan nan nan nan nan nan nan nan nan
nan nan nan nan nan nan nan 22 22 23 24 24 24 26 26 26 28 30 28 25 23 21 21 20 19 18 17 18 19 22 23 25 26 28 30 nan nan 33 33 37 36 34 34 33 nan nan nan nan nan nan nan nan nan nan nan nan nan nan nan nan nan nan nan nan nan nan nan nan nan nan nan nan nan nan nan nan nan nan nan nan nan nan nan nan nan nan nan
nan nan nan nan nan nan 19 19 20 20 20 20 20 20 20 20 21 21 20 19 17 15 15 14 15 15 16 17 18 20 24 25 26 27 27 28 29 nan 31 33 29 29 nan nan nan nan nan nan nan nan nan nan nan nan nan nan nan nan nan nan nan nan nan nan nan nan nan nan nan nan nan nan nan nan nan nan nan nan nan nan nan nan nan nan nan nan nan
nan nan nan 16 16 18 19 20 20 20 21 21 20 18 17 17 16 15 14 13 14 13 13 12 14 16 17 19 20 20 22 24 25 23 22 23 24 25 23 26 24 21 20 nan nan nan nan nan nan nan nan nan nan nan nan nan nan nan nan nan nan nan nan nan nan nan nan nan nan nan nan nan nan nan nan nan nan nan nan nan nan nan nan nan nan nan nan
16 15 14 15 16 17 19 19 19 20 19 18 17 15 14 14 13 12 11 11 12 13 14 14 14 14 13 13 15 16 16 19 18 17 nan nan nan nan nan nan nan nan nan nan nan nan nan nan nan nan nan nan nan nan nan nan nan nan nan nan nan nan nan nan nan nan nan nan nan nan nan nan nan nan nan nan nan nan nan nan nan nan nan nan nan nan nan
11 12 13 14 14 15 14 15 14 14 13 11 11 10 9 9 9 9 9 9 10 11 11 11 10 10 10 9 9 11 13 14 16 16 17 nan nan nan nan 21 nan nan nan nan nan nan nan nan nan nan nan nan nan nan nan nan nan nan nan nan nan nan nan nan nan nan nan nan nan nan nan nan nan nan nan nan nan nan nan nan nan nan nan nan nan nan nan
5 7 9 11 11 10 9 9 8 nan 8 9 9 8 9 8 7 8 8 7 6 7 7 6 7 9 10 10 12 13 14 14 15 17 18 18 nan nan nan nan nan nan nan nan nan nan nan nan nan nan nan nan nan nan nan nan nan nan nan nan nan nan nan nan nan nan nan nan nan nan nan nan nan nan nan nan nan nan nan nan nan nan nan nan nan nan nan
5 6 7 9 11 11 10 10 9 9 9 9 10 10 10 11 10 8 7 7 9 9 7 9 9 11 10 11 13 15 16 16 17 16 nan nan nan 18 21 nan nan nan nan nan nan nan nan nan nan nan nan nan nan nan nan nan nan nan nan nan nan nan nan nan nan nan nan nan nan nan nan nan nan nan nan nan nan nan nan nan nan nan nan nan nan nan nan
9 9 9 9 11 13 12 10 10 11 10 10 11 11 11 11 10 9 8 9 11 11 11 12 nan nan 13 14 17 17 19 22 24 22 16 17 nan nan nan 25 nan nan nan nan nan nan nan nan nan nan nan nan nan nan nan nan nan nan nan nan nan nan nan nan nan nan nan nan nan nan nan nan nan nan nan nan nan nan nan nan nan nan nan nan nan nan nan
Wind_Direction
nan nan nan nan nan nan nan nan nan nan nan nan nan nan nan nan nan nan 286 290 288 nan nan nan nan nan nan nan nan nan 288 285 nan 285 283 287 292 291 298 310 312 315 319 321 322 320 317 312 309 306 302 302 304 303 303 305 308 309 304 308 311 310 309 311 316 320 319 317 316 318 318 315 312 nan 314 nan 317 317 318 320 320 321 nan nan nan nan nan
nan nan nan nan nan nan nan nan nan nan nan nan nan nan nan 250 nan 265 287 284 281 nan nan 292 292 nan nan nan nan nan nan 281 285 286 285 293 293 295 299 310 314 317 319 320 320 317 314 315 310 306 305 306 306 305 302 300 298 300 305 309 309 308 305 311 314 315 315 316 317 318 316 315 nan nan 317 319 320 321 322 322 321 321 nan 321 320 nan nan
nan nan nan nan nan nan nan nan nan nan nan nan nan nan nan nan nan 252 276 275 271 273 288 284 278 nan 279 nan nan nan 275 nan 277 281 291 295 297 301 304 307 314 317 318 317 315 315 314 313 310 306 304 303 303 302 301 298 298 300 301 304 304 306 307 312 312 313 314 316 316 317 316 315 315 316 318 320 321 322 322 321 322 323 322 nan nan nan 319
nan nan nan nan nan nan nan nan nan nan nan nan nan nan nan nan nan 257 264 260 261 264 271 274 274 274 nan nan nan nan nan nan nan nan nan nan 293 298 303 303 305 311 315 314 316 318 316 311 308 302 300 301 301 301 298 294 293 294 298 301 303 307 312 312 312 314 316 315 315 315 314 316 316 317 317 319 320 321 321 322 323 321 320 320 320 319 318
nan nan nan nan nan nan nan nan nan nan nan nan nan nan nan nan nan 255 264 261 261 268 268 266 264 267 nan nan nan 271 272 278 281 278 273 273 279 292 296 298 305 311 315 314 316 318 314 309 306 304 301 300 301 296 292 288 287 288 291 300 307 309 312 316 316 316 314 315 315 315 316 316 316 316 317 318 320 321 322 322 320 319 319 318 318 318 318
nan nan nan nan nan nan nan nan nan nan nan nan nan nan nan 233 nan 242 250 254 256 256 254 259 259 260 nan nan nan nan 279 278 277 273 269 272 278 283 295 299 304 310 310 306 308 313 313 309 305 301 304 300 291 287 287 290 296 304 306 305 305 309 314 316 316 316 315 315 316 317 316 316 316 317 318 321 321 320 319 318 319 319 317 317 317 317 317
nan 211 209 nan nan nan 218 220 224 nan nan nan nan nan nan 232 nan 244 240 238 240 242 252 nan nan nan nan nan 270 273 277 274 276 280 280 281 282 285 291 300 302 307 311 309 305 302 300 300 298 296 293 288 288 289 295 302 304 300 302 304 307 310 314 314 314 315 315 316 317 317 317 317 317 319 320 320 320 319 318 317 317 318 317 315 315 314 315
nan nan nan nan nan 213 214 213 nan nan nan nan nan nan 228 229 nan 239 nan nan 253 254 nan nan nan nan nan 259 263 270 273 274 277 282 286 288 290 291 294 296 303 307 309 307 306 302 297 298 299 298 296 294 294 298 302 302 299 300 306 308 310 311 313 314 316 316 315 316 316 315 316 317 319 320 320 321 320 317 315 315 315 316 315 313 312 313 315
nan nan nan nan 216 nan 218 215 nan nan nan 227 228 224 nan 231 nan 238 242 244 nan 254 252 249 nan nan nan nan nan nan 270 274 nan nan nan nan 288 293 294 294 297 307 309 306 300 297 298 300 299 297 295 294 295 298 297 292 293 302 308 309 311 312 314 316 316 314 314 315 315 316 316 318 321 321 320 319 317 315 314 314 315 315 314 312 310 311 314
nan nan nan nan nan nan nan nan 222 nan nan nan 232 nan nan 226 nan 239 241 nan 248 253 252 254 257 nan nan nan nan 262 263 266 271 nan 276 275 280 287 286 285 287 291 296 298 298 300 299 298 297 294 295 294 297 299 297 299 304 307 309 309 308 311 314 316 313 311 312 314 316 317 317 320 322 319 317 315 315 314 314 312 314 315 314 312 309 309 312
nan nan nan nan nan nan 229 230 227 229 231 229 229 nan nan 224 228 237 245 247 247 253 257 256 nan nan nan nan nan 267 273 273 272 273 277 277 283 285 286 289 290 291 293 299 299 298 298 297 295 295 297 301 301 302 300 302 304 304 305 304 305 311 313 310 308 309 311 313 315 317 320 323 320 316 316 316 314 311 310 309 310 311 311 309 305 306 309
nan 232 nan nan nan 227 228 228 230 233 235 237 235 235 232 229 227 237 245 249 nan nan nan 260 nan nan nan nan 271 nan nan nan 277 286 284 279 283 284 286 288 290 291 291 294 299 301 302 298 295 295 296 298 299 299 300 299 300 301 300 303 307 307 305 304 306 307 309 313 315 318 322 319 315 315 313 313 312 310 308 309 312 314 311 304 301 305 nan
nan nan nan nan 233 234 232 234 nan nan nan 242 nan nan 240 235 235 238 nan nan nan nan nan nan nan nan nan nan nan nan nan nan 272 282 285 286 285 286 286 289 288 289 292 295 301 302 299 295 292 292 292 295 297 297 295 295 297 299 302 302 301 302 302 303 305 306 306 309 314 316 318 317 315 316 315 315 314 312 312 316 320 319 313 305 301 302 303
nan nan nan nan 238 239 nan nan 234 nan nan nan 245 243 241 238 nan nan nan nan nan nan 252 254 256 258 nan nan nan 259 260 266 275 278 280 283 282 281 286 291 292 293 293 293 293 295 293 291 287 287 290 292 292 291 291 294 299 297 297 298 299 300 302 303 304 303 305 303 308 304 296 288 292 299 299 300 304 305 306 314 320 314 306 302 307 309 309
230 229 231 nan nan 234 236 nan 238 239 246 249 251 249 246 nan nan nan nan 243 nan nan nan nan 255 256 nan 253 256 261 264 269 280 286 287 288 288 287 288 289 291 293 293 296 296 294 288 283 279 279 285 287 286 289 292 292 289 289 295 300 300 300 301 300 300 303 304 301 287 285 295 302 306 309 308 307 309 311 313 318 315 307 301 301 306 312 317
239 241 240 nan 235 232 226 241 243 242 247 253 250 251 nan nan nan nan nan 248 250 252 254 250 248 248 253 258 264 265 268 269 284 288 287 286 284 284 287 288 287 284 284 280 274 277 273 267 266 270 275 276 277 279 281 285 286 286 287 291 296 298 299 298 298 299 296 288 289 293 299 302 302 303 304 304 308 309 307 306 307 305 298 299 301 305 315
234 238 244 242 240 239 241 243 243 244 244 246 248 249 nan nan nan nan nan 251 nan 251 250 250 252 254 257 265 268 269 270 274 282 282 280 281 282 284 283 275 275 278 284 295 301 281 250 257 258 261 265 271 274 277 282 281 283 285 286 289 291 291 292 296 298 296 292 291 291 291 294 297 300 303 305 306 307 306 305 307 nan nan nan 296 300 307 312
228 232 233 236 241 243 244 248 252 253 251 249 249 nan nan nan nan nan nan nan nan 255 255 259 261 263 266 265 262 264 269 274 273 276 276 277 278 279 281 281 282 288 287 289 295 289 243 237 251 253 260 273 278 282 283 283 284 287 289 290 293 292 293 292 294 294 292 291 292 296 299 302 303 305 304 304 303 303 304 305 306 306 302 nan 295 300 308
240 nan nan 216 nan nan nan nan 247 251 253 251 250 nan 255 258 259 261 nan nan 259 258 257 260 264 264 263 264 265 267 267 266 270 275 278 280 281 284 287 289 289 290 291 288 291 287 260 239 242 257 270 279 287 289 291 289 285 284 287 291 292 292 292 292 291 290 292 294 296 298 301 302 301 299 301 300 301 301 301 303 304 nan nan nan 299 301 303
250 258 248 nan 211 nan nan nan 243 nan 247 247 247 250 252 253 253 257 nan 260 262 270 271 272 271 268 265 268 270 271 272 274 274 276 281 284 284 284 288 291 290 290 291 289 291 292 269 245 255 271 282 288 296 300 294 287 285 285 285 291 293 292 291 290 290 291 291 295 296 299 299 299 298 299 300 302 301 302 304 306 306 306 306 305 304 303 304
250 253 256 255 252 238 238 nan nan nan nan nan nan 243 246 248 251 nan 260 266 263 268 273 270 269 266 266 270 272 273 275 275 279 284 285 285 286 286 287 291 291 291 292 292 294 297 287 250 258 271 276 281 nan 297 294 290 287 284 284 288 290 290 291 291 292 294 297 298 299 298 297 295 293 293 295 296 298 298 298 300 304 305 304 303 302 298 298
254 256 259 nan 260 nan nan nan 244 nan nan nan nan nan 255 nan nan nan nan 258 261 262 267 269 270 272 272 274 277 277 279 279 279 280 282 283 284 283 284 287 288 288 290 291 293 298 297 287 272 275 275 nan nan nan 292 289 291 289 287 286 287 288 290 293 295 297 298 300 301 300 300 299 298 296 292 293 296 300 301 298 298 300 301 301 298 298 298
nan 263 264 266 270 nan nan nan nan nan nan nan nan nan nan nan nan nan nan nan nan 258 262 270 274 275 278 279 281 282 283 284 285 285 286 286 286 287 287 287 287 290 295 298 296 297 nan 292 nan nan 278 275 280 287 288 287 287 287 287 288 291 291 293 294 294 297 298 299 298 298 300 301 301 302 302 296 291 291 294 296 295 293 293 297 301 300 299
nan 258 259 259 261 265 265 nan nan nan nan nan nan nan nan nan nan nan nan nan nan nan 263 270 277 279 278 280 282 283 284 287 287 288 288 288 290 292 292 291 292 292 294 296 297 296 292 nan 288 282 277 281 289 291 286 286 288 288 288 289 291 294 296 295 295 295 298 298 298 300 301 302 304 306 305 303 299 294 nan nan 295 nan 290 287 289 294 297
255 nan 258 260 262 262 265 nan nan nan nan nan nan nan nan nan nan nan nan nan nan nan nan nan 275 282 282 283 284 286 287 288 290 290 291 289 291 292 292 292 294 296 296 292 290 292 292 293 290 287 284 282 280 279 283 288 289 289 289 290 291 293 294 294 294 295 297 299 301 301 303 305 306 307 306 305 303 301 297 294 nan nan nan 290 291 295 299
nan nan nan 260 261 nan nan nan nan nan nan nan nan nan nan nan 257 257 nan nan nan nan nan nan nan 274 281 285 284 283 284 286 288 288 288 290 290 290 290 291 290 289 289 291 293 293 291 290 289 284 280 279 279 nan 283 287 287 288 290 291 292 293 294 295 295 295 293 295 300 302 304 306 308 308 308 307 305 304 303 301 nan nan 298 297 299 298 297
nan nan nan 258 258 257 nan nan nan nan nan nan nan nan nan nan nan nan nan nan nan nan nan nan nan nan 274 284 284 287 287 285 286 288 289 290 293 293 292 291 292 293 296 295 292 290 288 284 281 280 280 280 281 282 284 285 285 286 289 289 289 289 289 288 289 290 293 296 299 303 304 305 307 306 306 304 304 307 309 310 312 310 309 308 306 303 299
nan nan nan nan nan nan 260 260 261 nan nan nan nan nan nan nan nan nan nan nan nan nan nan nan nan nan 270 276 283 284 286 288 291 290 291 292 291 289 290 291 294 294 289 287 287 286 283 281 280 278 277 279 280 282 284 284 286 288 289 289 290 290 289 289 289 291 293 297 300 302 304 305 306 305 304 304 303 304 306 309 310 309 309 311 308 304 300
nan nan nan nan nan nan nan nan nan nan nan nan nan nan nan nan nan nan nan nan nan nan nan nan nan nan nan 279 279 282 285 286 289 290 290 286 285 285 288 290 292 288 286 286 283 282 280 280 279 280 281 282 282 282 282 284 285 286 286 286 287 289 289 289 291 294 297 299 300 301 303 303 301 301 302 302 302 302 303 304 305 306 307 307 305 nan nan
nan nan nan nan nan nan nan nan nan nan nan nan nan nan nan nan nan nan nan nan nan nan nan nan nan nan 272 nan 281 282 285 288 289 288 286 285 283 283 282 283 283 284 285 283 281 279 280 280 280 282 283 282 282 283 283 284 285 285 286 288 289 290 291 292 293 295 297 298 299 298 298 299 300 301 302 302 302 303 304 302 301 301 302 304 305 nan nan
nan nan nan nan nan nan nan nan nan nan nan nan nan nan nan nan nan nan nan nan nan nan nan nan nan nan nan nan nan nan 279 283 287 286 284 283 281 278 277 277 279 282 283 285 285 283 282 282 281 281 279 279 280 282 284 285 287 288 288 288 287 290 293 295 296 296 297 298 296 295 295 296 298 300 299 299 300 nan 301 301 300 299 298 300 nan nan nan
nan nan nan nan nan nan nan nan nan nan nan nan nan nan nan nan nan nan nan nan nan nan nan nan nan nan nan nan nan nan 273 277 280 283 280 273 268 267 271 273 273 273 274 282 288 287 283 282 283 282 280 280 281 282 285 286 288 289 290 287 289 290 291 292 294 295 296 295 294 293 295 296 297 296 297 nan nan nan nan nan nan nan 299 nan nan nan nan
nan nan nan nan nan nan nan nan nan nan nan nan nan nan nan nan nan nan nan nan nan nan nan nan nan nan nan 268 270 270 269 270 275 275 275 279 280 279 278 279 281 282 280 274 269 272 278 283 283 282 282 284 284 284 283 nan 279 278 281 286 289 291 291 291 293 294 292 291 291 292 293 294 296 297 nan 299 299 nan nan nan nan nan nan nan nan nan nan
nan nan nan nan nan nan nan nan nan nan nan nan nan nan nan nan nan nan nan nan nan nan nan nan nan nan nan nan nan nan nan nan 271 275 280 279 281 282 279 276 276 275 273 270 268 269 270 273 275 277 280 284 nan 283 279 nan 282 283 284 287 289 291 292 nan 292 291 291 292 293 292 292 294 nan nan nan nan nan nan nan nan nan nan nan nan nan nan nan
nan nan nan nan nan nan nan nan nan nan nan nan nan nan nan nan nan nan nan nan nan nan nan nan nan nan nan nan nan nan nan nan 276 278 276 275 272 272 274 276 275 275 276 278 280 nan 279 277 275 278 281 280 nan nan 280 nan 283 286 286 288 290 289 288 289 288 289 291 292 nan nan nan nan nan 298 298 nan nan nan nan nan nan nan nan nan nan nan nan
nan nan nan nan nan nan nan nan nan nan nan nan nan nan nan nan nan nan nan nan nan nan nan nan nan nan nan nan nan nan nan 277 279 279 279 278 279 277 276 278 279 279 279 279 280 280 278 280 nan nan nan nan nan nan 282 283 nan 285 288 nan nan nan 287 287 287 nan nan nan nan nan nan nan nan nan nan nan nan nan nan nan nan nan nan nan nan nan nan
nan nan nan nan nan nan nan nan nan nan nan nan nan nan nan nan nan nan nan nan nan nan nan nan nan nan nan nan 272 274 276 280 280 281 281 282 281 280 279 278 278 278 278 279 279 279 280 280 nan nan nan nan nan nan 285 284 283 284 nan nan 289 289 nan nan nan nan nan nan nan nan nan nan nan nan nan nan nan nan nan nan nan nan nan nan nan nan nan
nan nan nan nan nan nan nan nan nan nan nan nan nan nan nan nan nan nan nan nan nan 263 265 266 nan nan nan 274 276 277 278 280 282 282 281 282 280 279 278 278 278 279 278 278 277 277 279 282 nan 282 nan nan nan nan nan 287 284 280 nan nan nan nan 292 nan nan nan nan nan nan nan nan nan nan nan nan nan nan nan nan nan nan nan nan nan nan nan nan
nan nan nan nan nan nan nan nan nan nan nan nan nan nan nan nan nan nan nan nan 268 265 264 264 264 268 270 278 280 279 281 281 280 279 278 276 274 274 274 274 274 277 278 277 277 279 281 283 284 285 nan nan nan nan nan 285 285 nan nan nan nan nan nan nan nan nan nan nan nan nan nan nan nan nan nan nan nan nan nan nan nan nan nan nan nan nan nan
nan nan nan nan nan nan nan nan nan nan nan nan nan nan nan nan nan 271 273 273 273 271 273 271 270 275 279 281 282 282 281 278 276 276 276 276 275 274 273 269 269 271 276 280 280 282 285 289 286 nan nan nan nan nan nan nan nan nan nan nan nan nan nan nan nan nan nan nan nan nan nan nan nan nan nan nan nan nan nan nan nan nan nan nan nan nan nan
nan nan nan nan nan nan nan nan nan nan nan nan nan nan nan nan nan 274 275 275 nan nan 274 273 273 269 261 264 271 272 272 273 272 272 272 271 270 270 273 276 277 279 279 279 nan 284 287 287 nan nan nan nan nan nan nan nan nan nan nan nan nan nan nan nan nan nan nan nan nan nan nan nan nan nan nan nan nan nan nan nan nan nan nan nan nan nan nan
nan nan nan nan nan nan nan nan nan nan nan nan 282 282 279 278 nan nan nan nan nan 277 274 274 274 277 nan nan 263 263 263 261 259 259 263 275 282 284 282 281 281 282 285 286 288 nan nan 286 286 288 nan nan nan nan nan nan nan nan nan nan nan nan nan nan nan nan nan nan nan nan nan nan nan nan nan nan nan nan nan nan nan nan nan nan nan nan nan
nan nan nan nan nan nan nan nan nan nan nan nan 284 283 282 nan nan nan nan nan nan nan 274 272 269 267 nan nan 264 267 nan 273 nan 275 271 270 275 279 283 285 282 283 287 286 nan nan nan nan nan nan nan nan nan nan nan nan nan nan nan nan nan nan nan nan nan nan nan nan nan nan nan nan nan nan nan nan nan nan nan nan nan nan nan nan nan nan nan
nan nan nan nan nan nan nan nan nan nan 290 290 288 286 284 282 nan nan 280 280 nan 276 272 nan nan nan nan 265 nan nan 275 279 277 274 275 276 275 278 282 nan nan 288 292 286 nan nan nan nan nan nan nan nan nan nan nan nan nan nan nan nan nan nan nan nan nan nan nan nan nan nan nan nan nan nan nan nan nan nan nan nan nan nan nan nan nan nan nan
nan nan nan nan nan nan nan 291 293 293 299 302 302 297 292 287 283 282 280 281 281 281 281 278 274 271 271 271 274 279 279 278 282 282 282 nan nan 281 281 281 280 277 285 286 nan nan nan nan nan nan nan nan nan nan nan nan nan nan nan nan nan nan nan nan nan nan nan nan nan nan nan nan nan nan nan nan nan nan nan nan nan nan nan nan nan nan nan
nan nan nan nan nan nan 290 291 294 299 300 300 302 302 298 295 292 288 282 277 277 275 269 265 265 265 267 268 264 269 276 276 278 281 283 287 290 nan 288 283 278 278 nan nan nan nan nan nan nan nan nan nan nan nan nan nan nan nan nan nan nan nan nan nan nan nan nan nan nan nan nan nan nan nan nan nan nan nan nan nan nan nan nan nan nan nan nan
nan nan nan 288 292 290 288 288 289 292 293 294 294 295 298 301 304 300 284 271 270 271 273 272 274 278 278 276 277 272 276 274 269 269 274 277 281 286 289 292 289 295 296 nan nan nan nan nan nan nan nan nan nan nan nan nan nan nan nan nan nan nan nan nan nan nan nan nan nan nan nan nan nan nan nan nan nan nan nan nan nan nan nan nan nan nan nan
288 292 292 295 297 294 290 286 284 287 290 292 293 295 295 299 301 300 293 279 276 279 278 279 282 281 281 287 289 288 284 281 277 276 nan nan nan nan nan nan nan nan nan nan nan nan nan nan nan nan nan nan nan nan nan nan nan nan nan nan nan nan nan nan nan nan nan nan nan nan nan nan nan nan nan nan nan nan nan nan nan nan nan nan nan nan nan
291 295 300 304 303 298 292 289 291 295 298 303 306 307 306 306 313 319 310 294 285 281 281 280 278 277 279 285 295 295 293 293 289 283 282 nan nan nan nan 295 nan nan nan nan nan nan nan nan nan nan nan nan nan nan nan nan nan nan nan nan nan nan nan nan nan nan nan nan nan nan nan nan nan nan nan nan nan nan nan nan nan nan nan nan nan nan nan
312 309 310 310 310 305 308 318 322 nan 330 325 326 329 329 324 326 340 341 333 318 302 297 298 303 303 302 298 294 292 291 292 290 288 283 282 nan nan nan nan nan nan nan nan nan nan nan nan nan nan nan nan nan nan nan nan nan nan nan nan nan nan nan nan nan nan nan nan nan nan nan nan nan nan nan nan nan nan nan nan nan nan nan nan nan nan nan
357 351 344 332 324 323 325 338 345 337 337 340 335 334 334 335 335 334 337 327 312 306 308 298 294 300 300 301 302 301 301 292 280 279 nan nan nan 294 292 nan nan nan nan nan nan nan nan nan nan nan nan nan nan nan nan nan nan nan nan nan nan nan nan nan nan nan nan nan nan nan nan nan nan nan nan nan nan nan nan nan nan nan nan nan nan nan nan
2 353 352 341 330 328 335 345 343 343 341 331 330 332 338 334 328 325 324 325 314 309 304 305 nan nan 300 294 288 286 288 290 294 294 292 289 nan nan nan 304 nan nan nan nan nan nan nan nan nan nan nan nan nan nan nan nan nan nan nan nan nan nan nan nan nan nan nan nan nan nan nan nan nan nan nan nan nan nan nan nan nan nan nan nan nan nan nan